Weather History for Fort Payne, AL

Change the Weather History Date:

Friday, October 25, 2013

  Actual Average (KRMG) Record (KRMG)
Temperature  
Mean Temperature 42 °F 58 °F  
Max Temperature 53 °F 71 °F 82 °F (2000)
Min Temperature 30 °F 45 °F 28 °F (1999)
Degree Days  
Heating Degree Days 24 8  
Month to date heating degree days 110  
Since 1 July heating degree days 124  
Cooling Degree Days 0 1  
Month to date cooling degree days 41  
Year to date cooling degree days 1631  
Moisture  
Dew Point 27 °F    
Average Humidity 64    
Maximum Humidity 93    
Minimum Humidity 24    
Precipitation  
Precipitation 0.00 in 0.11 in 3.05 in (1997)
Month to date precipitation 3.13  
Year to date precipitation 41.96  
Sea Level Pressure  
Sea Level Pressure 30.37 in    
Wind  
Wind Speed 3 mph (NNE)    
Max Wind Speed 12 mph    
Max Gust Speed 16 mph    
Visibility 10 miles    
Events      
T = Trace of Precipitation, MM = Missing Value Source: NWS Daily Summary

Daily Weather History Graph

Daily Weather History Graph

Search for Another Location

Airport:

Trip Planner

Search our weather history database for the weather conditions in past years. The results will help you decide how hot, cold, wet, or windy it might be!

Date:

Astronomy

Oct. 25, 2013 Rise Set
Actual Time 6:57 AM CDT 5:56 PM CDT
Civil Twilight 6:31 AM CDT 6:21 PM CDT
Nautical Twilight 6:01 AM CDT 6:51 PM CDT
Astronomical Twilight 5:32 AM CDT 7:20 PM CDT
Moon 11:18 PM CDT (10/25) 12:33 PM CDT (10/25)
Length of Visible Light 11h 50m
Length of Day
10h 59m
Waning Gibbous, 62% of the Moon is Illuminated
Oct 25
Waning Gibbous
Oct 26
Last Quarter
Nov 3
New
Nov 9
First Quarter
Nov 17
Full

Hourly Weather History & Observations

Time (CDT) Temp. Windchill Dew Point Humidity Pressure Visibility Wind Dir Wind Speed Gust Speed Precip Events Conditions
12:15 AM 41.0 °F 37.1 °F 33.8 °F 76% 30.28 in 10.0 mi NNE 5.8 mph - N/A   Clear
12:35 AM 41.0 °F 37.1 °F 32.0 °F 70% 30.29 in 10.0 mi NE 5.8 mph - N/A   Clear
12:55 AM 41.0 °F 37.1 °F 32.0 °F 70% 30.30 in 10.0 mi NNE 5.8 mph - N/A   Clear
1:15 AM 41.0 °F 39.0 °F 32.0 °F 70% 30.30 in 10.0 mi North 3.5 mph - N/A   Clear
1:35 AM 39.2 °F - 32.0 °F 75% 30.31 in 10.0 mi Calm Calm - N/A   Clear
1:55 AM 39.2 °F - 32.0 °F 75% 30.32 in 10.0 mi Calm Calm - N/A   Clear
2:15 AM 37.4 °F - 32.0 °F 81% 30.32 in 10.0 mi Calm Calm - N/A   Clear
2:35 AM 37.4 °F 34.9 °F 32.0 °F 81% 30.33 in 10.0 mi NNE 3.5 mph - N/A   Clear
2:55 AM 37.4 °F - 32.0 °F 81% 30.33 in 10.0 mi Calm Calm - N/A   Clear
3:15 AM 37.4 °F 33.8 °F 30.2 °F 75% 30.34 in 10.0 mi NNE 4.6 mph - N/A   Clear
3:35 AM 35.6 °F 32.8 °F 28.4 °F 75% 30.34 in 10.0 mi NE 3.5 mph - N/A   Clear
3:55 AM 35.6 °F - 26.6 °F 70% 30.34 in 10.0 mi Calm Calm - N/A   Clear
4:15 AM 33.8 °F - 28.4 °F 81% 30.35 in 10.0 mi Calm Calm - N/A   Clear
4:35 AM 33.8 °F - 28.4 °F 81% 30.36 in 10.0 mi Calm Calm - N/A   Clear
4:55 AM 32.0 °F - 28.4 °F 87% 30.36 in 10.0 mi Calm Calm - N/A   Clear
5:15 AM 32.0 °F - 28.4 °F 87% 30.37 in 10.0 mi Calm Calm - N/A   Clear
5:35 AM 32.0 °F - 28.4 °F 87% 30.37 in 10.0 mi Calm Calm - N/A   Clear
5:55 AM 32.0 °F - 28.4 °F 87% 30.38 in 10.0 mi Calm Calm - N/A   Clear
6:15 AM 32.0 °F - 26.6 °F 80% 30.38 in 10.0 mi Calm Calm - N/A   Clear
6:35 AM 30.2 °F - 26.6 °F 86% 30.40 in 10.0 mi Calm Calm - N/A   Clear
6:55 AM 30.2 °F - 26.6 °F 86% 30.40 in 10.0 mi Calm Calm - N/A   Clear
7:15 AM 30.2 °F - 26.6 °F 86% 30.41 in 10.0 mi Calm Calm - N/A   Clear
7:35 AM 30.2 °F - 26.6 °F 86% 30.42 in 10.0 mi Calm Calm - N/A   Clear
7:55 AM 32.0 °F - 28.4 °F 87% 30.42 in 10.0 mi Calm Calm - N/A   Clear
8:15 AM 32.0 °F - 28.4 °F 87% 30.43 in 10.0 mi Calm Calm - N/A   Clear
8:35 AM 35.6 °F - 28.4 °F 75% 30.43 in 10.0 mi Calm Calm - N/A   Clear
8:55 AM 37.4 °F 33.8 °F 28.4 °F 70% 30.44 in 10.0 mi ENE 4.6 mph - N/A   Clear
9:15 AM 39.2 °F 35.9 °F 28.4 °F 65% 30.45 in 10.0 mi East 4.6 mph - N/A   Clear
9:35 AM 41.0 °F 38.0 °F 28.4 °F 61% 30.45 in 10.0 mi East 4.6 mph - N/A   Clear
9:55 AM 42.8 °F 38.0 °F 28.4 °F 57% 30.44 in 10.0 mi NE 8.1 mph - N/A   Clear
10:15 AM 44.6 °F 39.7 °F 26.6 °F 49% 30.44 in 10.0 mi ENE 9.2 mph - N/A   Clear
10:35 AM 44.6 °F 40.7 °F 26.6 °F 49% 30.44 in 10.0 mi NE 6.9 mph - N/A   Clear
10:55 AM 46.4 °F 41.9 °F 26.6 °F 46% 30.44 in 10.0 mi NE 9.2 mph - N/A   Clear
11:15 AM 46.4 °F 41.9 °F 24.8 °F 43% 30.43 in 10.0 mi NNE 9.2 mph - N/A   Clear
11:35 AM 46.4 °F 43.5 °F 24.8 °F 43% 30.43 in 10.0 mi NNE 5.8 mph - N/A   Clear
11:55 AM 50.0 °F - 24.8 °F 37% 30.42 in 10.0 mi ENE 6.9 mph - N/A   Clear
12:15 PM 50.0 °F - 23.0 °F 35% 30.41 in 10.0 mi NE 5.8 mph - N/A   Clear
12:35 PM 50.0 °F - 23.0 °F 35% 30.40 in 10.0 mi NNE 5.8 mph - N/A   Clear
12:55 PM 51.8 °F - 21.2 °F 30% 30.39 in 10.0 mi NNE 11.5 mph 16.1 mph N/A   Clear
1:15 PM 51.8 °F - 19.4 °F 28% 30.38 in 10.0 mi NNE 9.2 mph - N/A   Clear
1:35 PM 51.8 °F - 19.4 °F 28% 30.37 in 3.0 mi North 10.4 mph - N/A   Haze
1:55 PM 51.8 °F - 21.2 °F 30% 30.37 in 10.0 mi North 4.6 mph - N/A   Clear
2:15 PM 53.6 °F - 21.2 °F 28% 30.36 in 10.0 mi NNW 3.5 mph - N/A   Clear
2:35 PM 53.6 °F - 21.2 °F 28% 30.36 in 10.0 mi NNE 10.4 mph - N/A   Clear
2:55 PM 53.6 °F - 19.4 °F 26% 30.36 in 10.0 mi NNW 8.1 mph - N/A   Clear
3:15 PM 53.6 °F - 19.4 °F 26% 30.35 in 10.0 mi NNE 10.4 mph 16.1 mph N/A   Clear
3:35 PM 53.6 °F - 19.4 °F 26% 30.35 in 10.0 mi NNE 6.9 mph - N/A   Clear
3:55 PM 53.6 °F - 17.6 °F 24% 30.35 in 10.0 mi NNE 9.2 mph - N/A   Clear
4:15 PM 53.6 °F - 19.4 °F 26% 30.34 in 10.0 mi North 9.2 mph - N/A   Clear
4:35 PM 53.6 °F - 19.4 °F 26% 30.34 in 10.0 mi North 6.9 mph - N/A   Clear
4:55 PM 51.8 °F - 17.6 °F 26% 30.33 in 10.0 mi North 6.9 mph - N/A   Clear
5:15 PM 51.8 °F - 21.2 °F 30% 30.33 in 10.0 mi North 5.8 mph - N/A   Clear
5:35 PM 50.0 °F - 23.0 °F 35% 30.33 in 10.0 mi Calm Calm - N/A   Clear
5:55 PM 46.4 °F - 26.6 °F 46% 30.33 in 10.0 mi Calm Calm - N/A   Clear
6:15 PM 44.6 °F - 28.4 °F 53% 30.33 in 10.0 mi Calm Calm - N/A   Clear
6:35 PM 42.8 °F - 30.2 °F 61% 30.34 in 10.0 mi Calm Calm - N/A   Clear
6:55 PM 41.0 °F - 30.2 °F 65% 30.34 in 10.0 mi Calm Calm - N/A   Clear
7:15 PM 39.2 °F - 32.0 °F 75% 30.34 in 10.0 mi Calm Calm - N/A   Clear
7:35 PM 37.4 °F - 30.2 °F 75% 30.35 in 10.0 mi Calm Calm - N/A   Clear
7:55 PM 37.4 °F - 30.2 °F 75% 30.35 in 10.0 mi Calm Calm - N/A   Clear
8:15 PM 35.6 °F - 30.2 °F 81% 30.35 in 10.0 mi Calm Calm - N/A   Clear
8:35 PM 35.6 °F - 30.2 °F 81% 30.35 in 10.0 mi Calm Calm - N/A   Clear
8:55 PM 33.8 °F - 30.2 °F 87% 30.35 in 10.0 mi Calm Calm - N/A   Clear
9:15 PM 32.0 °F - 30.2 °F 93% 30.35 in 10.0 mi Calm Calm - N/A   Clear
9:35 PM 33.8 °F - 30.2 °F 87% 30.36 in 10.0 mi Calm Calm - N/A   Clear
9:55 PM 32.0 °F - 30.2 °F 93% 30.36 in 10.0 mi Calm Calm - N/A   Clear
10:15 PM 32.0 °F - 30.2 °F 93% 30.36 in 10.0 mi Calm Calm - N/A   Clear
10:35 PM 32.0 °F - 30.2 °F 93% 30.36 in 10.0 mi Calm Calm - N/A   Clear
10:55 PM 32.0 °F - 30.2 °F 93% 30.35 in 10.0 mi Calm Calm - N/A   Clear
11:15 PM 32.0 °F - 28.4 °F 87% 30.35 in 10.0 mi Calm Calm - N/A   Clear
11:35 PM 30.2 °F - 28.4 °F 93% 30.35 in 10.0 mi Calm Calm - N/A   Clear
11:55 PM 30.2 °F - 28.4 °F 93% 30.34 in 10.0 mi Calm Calm - N/A   Clear